IZ6SAC-13 Weather Reports


time (UTC)temp
C
wind
direction
speed
KPH
gust
KPH
rain 1hr
cm
rain 24hr
cm
rain mn
cm
humidity
%
barometer
mb
20260507081530 19 235 3.2 6.4 0.00 0.08 0.08 63 1014.1
20260507074533 21 234 3.2 9.7 0.00 0.08 0.08 57 1013.9
20260507071519 23 151 0.0 3.2 0.00 0.08 0.08 56 1013.8
20260507064524 22 254 0.0 1.6 0.00 0.08 0.08 57 1013.8
20260507061529 22 220 0.0 3.2 0.00 0.08 0.08 57 1013.6
20260507054534 17 109 0.0 1.6 0.00 0.08 0.08 77 1013.6
20260507051517 16 101 0.0 1.6 0.00 0.08 0.08 80 1013.4
20260507044519 14 140 0.0 1.6 0.00 0.08 0.08 86 1012.9
20260507041525 13 234 1.6 3.2 0.00 0.08 0.08 86 1012.6
20260507034530 13 247 0.0 1.6 0.00 0.08 0.08 89 1012.5
20260507031535 13 0.0 0.0 0.03 0.08 0.08 86 1012.3
20260507024520 14 0.0 0.0 0.05 0.08 0.08 84 1012.5
20260507021522 14 238 0.0 1.6 0.05 0.05 0.05 81 1012.3
20260507014524 15 0.0 0.0 0.03 0.03 0.03 79 1012.3
20260507011526 15 226 0.0 1.6 0.00 0.00 0.00 76 1012.2
20260507004531 16 221 0.0 1.6 0.00 0.00 0.00 73 1012.2
20260507001516 16 0.0 0.0 0.00 0.00 0.00 72 1012.1
20260506234521 16 236 1.6 4.8 0.00 0.00 0.00 71 1012.1
20260506231526 16 228 6.4 11.3 0.00 0.00 0.00 69 1012.1
20260506224530 17 220 3.2 6.4 0.00 0.00 0.00 67 1012.3
20260506221534 16 221 3.2 6.4 0.00 0.00 0.00 68 1012.4
20260506214517 16 203 0.0 1.6 0.00 0.00 0.00 68 1012.6
20260506211522 16 190 1.6 4.8 0.00 0.00 0.00 68 1012.2
20260506204528 17 218 6.4 12.9 0.00 0.00 0.00 66 1012.5
20260506201533 17 209 6.4 14.5 0.00 0.00 0.00 64 1012.5
20260506194517 17 169 1.6 6.4 0.00 0.00 0.00 62 1012.3
20260506191520 17 211 6.4 12.9 0.00 0.00 0.00 61 1012.0
20260506184521 17 219 6.4 12.9 0.00 0.00 0.00 62 1011.6
20260506181525 17 217 4.8 11.3 0.00 0.00 0.00 65 1011.6
20260506174530 17 214 4.8 11.3 0.00 0.00 0.00 66 1011.4
20260506171536 17 221 3.2 9.7 0.00 0.00 0.00 66 1011.3
20260506164521 17 219 3.2 4.8 0.00 0.00 0.00 67 1011.5
20260506161525 19 192 8.0 20.9 0.00 0.00 0.00 59 1011.5
20260506154527 20 174 1.6 6.4 0.00 0.00 0.00 55 1011.3
20260506151530 20 220 4.8 9.7 0.00 0.00 0.00 54 1011.2
20260506144516 21 213 4.8 11.3 0.00 0.00 0.00 52 1011.0
20260506141521 22 218 4.8 11.3 0.00 0.00 0.00 51 1010.9
20260506134527 21 214 6.4 17.7 0.00 0.00 0.00 51 1011.2
20260506131530 22 232 6.4 12.9 0.00 0.00 0.00 48 1011.4
20260506124533 22 219 6.4 12.9 0.00 0.00 0.00 49 1011.5
20260506121521 23 219 6.4 14.5 0.00 0.00 0.00 46 1011.5
20260506114521 23 213 6.4 12.9 0.00 0.00 0.00 47 1011.6
20260506111530 23 214 8.0 20.9 0.00 0.00 0.00 48 1011.5
20260506104531 24 191 3.2 11.3 0.00 0.00 0.00 49 1011.6
20260506101516 23 179 3.2 9.7 0.00 0.00 0.00 47 1011.9
20260506094521 21 218 4.8 12.9 0.00 0.00 0.00 51 1012.1
20260506091524 21 187 1.6 3.2 0.00 0.00 0.00 52 1012.1
20260506084527 21 173 1.6 3.2 0.00 0.00 0.00 50 1011.8